Weather History for Kansas City, MO

Change the Weather History Date:

Sunday, March 24, 2013

  Actual Average Record
Temperature  
Mean Temperature 31 °F -  
Max Temperature 34 °F 57 °F 77 °F (1997)
Min Temperature 26 °F 37 °F 26 °F (2013)
Degree Days  
Heating Degree Days 34    
Moisture  
Dew Point 25 °F    
Average Humidity 81    
Maximum Humidity 93    
Minimum Humidity 61    
Precipitation  
Precipitation 0.10 in - - ()
Sea Level Pressure  
Sea Level Pressure 29.92 in    
Wind  
Wind Speed 15 mph (NNW)    
Max Wind Speed 20 mph    
Max Gust Speed 29 mph    
Visibility 3 miles    
Events Fog , Snow , Thunderstorm    
Averages and records for this station are not official NWS values.
T = Trace of Precipitation, MM = Missing Value Source: NWS Daily Summary

Daily Weather History Graph

Daily Weather History Graph

Search for Another Location

Airport:

Trip Planner

Search our weather history database for the weather conditions in past years. The results will help you decide how hot, cold, wet, or windy it might be!

Date:

Astronomy

Mar. 24, 2013 Rise Set
Actual Time 7:15 AM CDT 7:34 PM CDT
Civil Twilight 6:48 AM CDT 8:01 PM CDT
Nautical Twilight 6:17 AM CDT 8:32 PM CDT
Astronomical Twilight 5:45 AM CDT 9:04 PM CDT
Moon 5:04 PM CDT 5:24 AM CDT
Length of Visible Light 13h 12m
Length of Day
12h 19m
Waxing Gibbous, 92% of the Moon is Illuminated
Mar 24
Waxing Gibbous
Mar 27
Full
Apr 2
Last Quarter
Apr 10
New
Apr 18
First Quarter

Hourly Weather History & Observations

Time (CDT) Temp. Windchill Dew Point Humidity Pressure Visibility Wind Dir Wind Speed Gust Speed Precip Events Conditions
12:02 AM 33.8 °F 23.2 °F 30.2 °F 87% 29.86 in 5.0 mi NE 17.3 mph 23.0 mph 0.00 in Snow Light Snow
12:54 AM 34.0 °F 26.0 °F 30.0 °F 85% 29.93 in 9.0 mi North 10.4 mph - 0.00 in   Overcast
1:54 AM 33.1 °F 23.0 °F 28.9 °F 85% 29.88 in 4.0 mi NNE 15.0 mph 23.0 mph 0.01 in Snow Light Snow
2:16 AM 33.8 °F 24.3 °F 28.4 °F 81% 29.86 in 2.0 mi NNE 13.8 mph - 0.00 in Snow Light Snow
2:35 AM 33.8 °F 25.3 °F 28.4 °F 81% 29.86 in 1.8 mi NNE 11.5 mph - 0.00 in Snow Light Snow
2:54 AM 33.1 °F 22.6 °F 28.9 °F 85% 29.86 in 1.2 mi NNE 16.1 mph 21.9 mph 0.00 in Snow Light Snow
3:27 AM 33.8 °F 23.2 °F 28.4 °F 81% 29.83 in 1.2 mi NNE 17.3 mph - 0.01 in Snow Light Snow
3:51 AM 32.0 °F 20.5 °F 28.4 °F 87% 29.82 in 0.8 mi North 18.4 mph 24.2 mph 0.01 in Snow Light Snow
3:54 AM 32.0 °F 20.8 °F 28.9 °F 88% 29.84 in 0.8 mi North 17.3 mph 24.2 mph 0.01 in Snow Light Snow
4:50 AM 32.0 °F 23.6 °F 28.4 °F 87% 29.84 in 0.5 mi North 10.4 mph 19.6 mph 0.01 in Fog , Snow Snow
4:54 AM 30.9 °F 20.2 °F 28.9 °F 92% 29.86 in 0.5 mi North 15.0 mph 20.7 mph 0.01 in Fog , Snow Snow
5:07 AM 30.2 °F 20.2 °F 28.4 °F 93% 29.84 in 0.5 mi North 12.7 mph 20.7 mph 0.01 in Fog , Snow , Thunderstorm Snow
5:22 AM 30.2 °F 19.3 °F 28.4 °F 93% 29.85 in 0.5 mi North 15.0 mph - N/A Fog , Snow Snow
5:49 AM 30.2 °F 18.9 °F 28.4 °F 93% 29.85 in 0.5 mi North 16.1 mph 21.9 mph 0.04 in Fog , Snow , Thunderstorm Snow
5:54 AM 30.9 °F 20.7 °F 28.0 °F 89% 29.87 in 0.5 mi North 13.8 mph 21.9 mph 0.04 in Fog , Snow , Thunderstorm Snow
6:04 AM 30.2 °F 19.3 °F 28.4 °F 93% 29.85 in 0.5 mi North 15.0 mph 23.0 mph 0.00 in Fog , Snow Snow
6:11 AM 30.2 °F 18.9 °F 28.4 °F 93% 29.85 in 0.5 mi North 16.1 mph 21.9 mph 0.01 in Fog , Snow Snow
6:54 AM 30.0 °F 18.7 °F 27.0 °F 88% 29.88 in 0.5 mi North 16.1 mph 24.2 mph 0.02 in Fog , Snow Snow
7:08 AM 30.2 °F 18.5 °F 26.6 °F 86% 29.87 in 0.8 mi North 17.3 mph 24.2 mph 0.00 in Snow Light Snow
7:32 AM 30.2 °F 18.9 °F 26.6 °F 86% 29.88 in 0.5 mi North 16.1 mph 24.2 mph 0.01 in Fog , Snow Light Snow
7:36 AM 30.2 °F 20.2 °F 26.6 °F 86% 29.88 in 0.8 mi North 12.7 mph 24.2 mph 0.01 in Snow Light Snow
7:50 AM 30.2 °F 18.9 °F 26.6 °F 86% 29.88 in 0.5 mi North 16.1 mph 24.2 mph 0.01 in Fog , Snow Snow
7:54 AM 30.0 °F 19.1 °F 26.1 °F 85% 29.90 in 0.8 mi North 15.0 mph 28.8 mph 0.01 in Snow Light Snow
8:33 AM 30.2 °F 19.8 °F 26.6 °F 86% 29.89 in 1.0 mi NNW 13.8 mph 20.7 mph 0.00 in Snow Light Snow
8:40 AM 30.2 °F 19.3 °F 26.6 °F 86% 29.89 in 1.0 mi North 15.0 mph 23.0 mph 0.00 in Snow Light Snow
8:47 AM 30.2 °F 18.1 °F 26.6 °F 86% 29.89 in 0.8 mi North 18.4 mph 21.9 mph 0.00 in Snow Light Snow
8:54 AM 30.0 °F 19.5 °F 25.0 °F 82% 29.91 in 0.8 mi North 13.8 mph 21.9 mph 0.00 in Snow Light Snow
9:54 AM 28.9 °F 18.6 °F 25.0 °F 85% 29.93 in 1.0 mi North 12.7 mph 23.0 mph 0.00 in Snow Light Snow
10:08 AM 28.4 °F 16.2 °F 24.8 °F 86% 29.90 in 1.0 mi NNW 17.3 mph 23.0 mph 0.00 in Snow Light Snow
10:54 AM 28.9 °F 20.4 °F 25.0 °F 85% 29.94 in 1.0 mi NNW 9.2 mph - 0.00 in Snow Light Snow
11:04 AM 28.4 °F 18.5 °F 24.8 °F 86% 29.92 in 1.0 mi North 11.5 mph 23.0 mph 0.00 in Snow Light Snow
11:54 AM 30.0 °F 19.1 °F 24.1 °F 79% 29.95 in 1.8 mi NNW 15.0 mph 19.6 mph 0.00 in Snow Light Snow
12:21 PM 30.2 °F 18.9 °F 23.0 °F 75% 29.93 in 2.0 mi NNW 16.1 mph 25.3 mph 0.00 in Snow Light Snow
12:44 PM 30.2 °F 20.8 °F 24.8 °F 80% 29.93 in 1.8 mi NNW 11.5 mph 20.7 mph 0.00 in Snow Light Snow
12:54 PM 30.0 °F 19.5 °F 24.1 °F 79% 29.96 in 1.8 mi NNW 13.8 mph 23.0 mph 0.00 in Snow Light Snow
1:36 PM 30.2 °F 20.2 °F 24.8 °F 80% 29.94 in 2.5 mi NW 12.7 mph 20.7 mph 0.00 in Snow Light Snow
1:54 PM 30.9 °F 20.7 °F 25.0 °F 79% 29.96 in 2.5 mi NW 13.8 mph - 0.00 in Snow Light Snow
2:21 PM 30.2 °F 19.3 °F 24.8 °F 80% 29.94 in 3.0 mi NW 15.0 mph 24.2 mph 0.00 in Snow Light Snow
2:31 PM 30.2 °F 18.1 °F 24.8 °F 80% 29.94 in 2.5 mi NW 18.4 mph 24.2 mph 0.00 in Snow Light Snow
2:51 PM 32.0 °F 20.1 °F 23.0 °F 69% 29.94 in 5.0 mi NW 19.6 mph 25.3 mph 0.00 in Snow Light Snow
2:54 PM 32.0 °F 20.8 °F 23.0 °F 69% 29.97 in 7.0 mi NW 17.3 mph 27.6 mph 0.00 in Snow Light Snow
3:54 PM 32.0 °F 20.8 °F 21.9 °F 66% 29.97 in 10.0 mi WNW 17.3 mph 26.5 mph 0.00 in Snow Light Snow
4:54 PM 30.9 °F 21.7 °F 21.9 °F 69% 30.00 in 7.0 mi NW 11.5 mph 26.5 mph 0.00 in Snow Light Snow
5:54 PM 30.0 °F 20.0 °F 21.0 °F 69% 30.01 in 7.0 mi NW 12.7 mph 23.0 mph 0.00 in   Overcast
6:54 PM 30.0 °F 19.5 °F 19.9 °F 66% 30.04 in 9.0 mi NW 13.8 mph 20.7 mph 0.00 in   Overcast
7:23 PM 30.2 °F 18.9 °F 19.4 °F 64% 30.03 in 8.0 mi NW 16.1 mph 25.3 mph 0.00 in Snow Light Snow
7:54 PM 30.0 °F 19.5 °F 18.0 °F 61% 30.06 in 9.0 mi NW 13.8 mph - 0.00 in   Partly Cloudy
8:54 PM 28.9 °F 19.8 °F 18.0 °F 64% 30.07 in 10.0 mi NW 10.4 mph 19.6 mph N/A   Overcast
9:54 PM 28.0 °F 18.1 °F 18.0 °F 66% 30.09 in 8.0 mi NW 11.5 mph 20.7 mph 0.00 in   Overcast
10:54 PM 28.0 °F 18.6 °F 17.1 °F 63% 30.09 in 10.0 mi NW 10.4 mph - N/A   Overcast
11:54 PM 26.1 °F 16.8 °F 15.1 °F 63% 30.09 in 10.0 mi WNW 9.2 mph - N/A   Partly Cloudy